Yuma MCAS, AZ

2:47 AM MST on August 18, 2017 (GMT -0700)
Yuma Marine Corps Air Station

Weather History for KNYL - March, 2014

Change the Weather History Date:

Thursday, March 27, 2014

  Actual Average Record
Temperature  
Mean Temperature 67 °F 69 °F  
Max Temperature 78 °F 82 °F 100 °F (1986)
Min Temperature 56 °F 56 °F 38 °F (1936)
Degree Days  
Heating Degree Days 0 1  
Month to date heating degree days 4 47  
Since 1 July heating degree days 365 670  
Cooling Degree Days 2 5  
Month to date cooling degree days 161 97  
Year to date cooling degree days 275 133  
Growing Degree Days 17 (Base 50)    
Moisture  
Dew Point 37 °F    
Average Humidity 38    
Maximum Humidity 57    
Minimum Humidity 18    
Precipitation  
Precipitation 0.00 in 0.01 in 0.31 in (1925)
Month to date precipitation 0.07 0.30  
Year to date precipitation 0.07 1.06  
Sea Level Pressure  
Sea Level Pressure 29.92 in    
Wind  
Wind Speed 10 mph (WNW)    
Max Wind Speed 21 mph    
Max Gust Speed 26 mph    
Visibility 10 miles    
Events      
T = Trace of Precipitation, MM = Missing Value Source: NWS Daily Summary

Daily Weather History Graph

Daily Weather History Graph

Search for Another Location

Airport or City:

Trip Planner

Search our weather history database for the weather conditions in past years. The results will help you decide how hot, cold, wet, or windy it might be!

Date:

Astronomy

Mar. 27, 2014 Rise Set
Actual Time 6:32 AM MST 6:55 PM MST
Civil Twilight 6:08 AM MST 7:19 PM MST
Nautical Twilight 5:39 AM MST 7:48 PM MST
Astronomical Twilight 5:10 AM MST 8:17 PM MST
Moon 4:16 AM MST (3/27) 3:56 PM MST (3/27)
Length of Visible Light 13h 11m
Length of Day
12h 22m
Waning Crescent, 12% of the Moon is Illuminated
Mar 27
Waning Crescent
Mar 30
New
Apr 7
First Quarter
Apr 15
Full
Apr 22
Last Quarter

Hourly Weather History & Observations

Time (MST) Temp. Dew Point Humidity Pressure Visibility Wind Dir Wind Speed Gust Speed Precip Events Conditions
12:57 AM 60.1 °F 39.0 °F 46% 29.88 in 10.0 mi West 10.4 mph 17.3 mph N/A   Clear
1:57 AM 59.0 °F 39.0 °F 48% 29.89 in 10.0 mi Variable 6.9 mph - N/A   Clear
2:57 AM 57.9 °F 39.9 °F 51% 29.88 in 10.0 mi West 8.1 mph - N/A   Clear
3:57 AM 57.9 °F 41.0 °F 53% 29.89 in 10.0 mi WSW 6.9 mph - N/A   Clear
4:57 AM 57.0 °F 42.1 °F 57% 29.89 in 10.0 mi WSW 6.9 mph - N/A   Clear
5:57 AM 57.0 °F 42.1 °F 57% 29.90 in 10.0 mi WNW 4.6 mph - N/A   Clear
6:57 AM 57.9 °F 39.9 °F 51% 29.92 in 10.0 mi West 8.1 mph - N/A   Mostly Cloudy
7:57 AM 62.1 °F 39.0 °F 43% 29.93 in 10.0 mi NW 6.9 mph - N/A   Partly Cloudy
8:57 AM 66.9 °F 37.9 °F 34% 29.94 in 10.0 mi NW 11.5 mph - N/A   Partly Cloudy
9:57 AM 68.0 °F 37.0 °F 32% 29.96 in 10.0 mi WNW 13.8 mph 23.0 mph N/A   Partly Cloudy
10:57 AM 70.0 °F 35.1 °F 28% 29.97 in 10.0 mi WNW 17.3 mph 21.9 mph N/A   Partly Cloudy
11:57 AM 73.0 °F 34.0 °F 24% 29.97 in 10.0 mi WNW 15.0 mph - N/A   Partly Cloudy
12:57 PM 75.0 °F 34.0 °F 22% 29.96 in 10.0 mi West 15.0 mph 21.9 mph N/A   Scattered Clouds
1:57 PM 75.0 °F 32.0 °F 21% 29.94 in 10.0 mi WNW 15.0 mph 24.2 mph N/A   Mostly Cloudy
2:57 PM 77.0 °F 30.9 °F 19% 29.91 in 10.0 mi West 13.8 mph - N/A   Scattered Clouds
3:57 PM 77.0 °F 30.0 °F 18% 29.89 in 10.0 mi West 15.0 mph - N/A   Partly Cloudy
4:57 PM 77.0 °F 32.0 °F 19% 29.88 in 10.0 mi WNW 13.8 mph 20.7 mph N/A   Partly Cloudy
5:57 PM 75.0 °F 33.1 °F 22% 29.88 in 10.0 mi WNW 12.7 mph - N/A   Partly Cloudy
6:57 PM 71.1 °F 35.1 °F 27% 29.89 in 10.0 mi WNW 9.2 mph - N/A   Partly Cloudy
7:57 PM 69.1 °F 36.0 °F 30% 29.91 in 10.0 mi WNW 9.2 mph - N/A   Partly Cloudy
8:57 PM 66.0 °F 37.0 °F 34% 29.94 in 10.0 mi WNW 6.9 mph - N/A   Clear
9:57 PM 64.0 °F 37.9 °F 38% 29.96 in 10.0 mi WSW 4.6 mph - N/A   Clear
10:57 PM 62.1 °F 37.9 °F 41% 29.97 in 10.0 mi SW 3.5 mph - N/A   Clear
11:57 PM 62.1 °F 37.9 °F 41% 29.99 in 10.0 mi WNW 5.8 mph - N/A   Clear